owner,sensor,date,latitude,longitude,sea_surface_height_above_sea_level,qcFlag 
COMPS,ioos:station:USF.COMPS:ARP:1,2011-11-01T00:00:00Z,28.4330,-82.6670,0.021,1111122 
COMPS,ioos:station:USF.COMPS:ARP:1,2011-11-01T00:06:00Z,28.4330,-82.6670,0.014,1111122 
COMPS,ioos:station:USF.COMPS:ARP:1,2011-11-01T00:12:00Z,28.4330,-82.6670,0.007,1111122 
COMPS,ioos:station:USF.COMPS:ARP:1,2011-11-01T00:18:00Z,28.4330,-82.6670,-0.005,1111122 
COMPS,ioos:station:USF.COMPS:ARP:1,2011-11-01T00:24:00Z,28.4330,-82.6670,-0.014,1111122 
COMPS,ioos:station:USF.COMPS:ARP:1,2011-11-01T00:30:00Z,28.4330,-82.6670,-0.023,1111122 
COMPS,ioos:station:USF.COMPS:ARP:1,2011-11-01T00:36:00Z,28.4330,-82.6670,-0.033,1111122 
COMPS,ioos:station:USF.COMPS:ARP:1,2011-11-01T00:42:00Z,28.4330,-82.6670,-0.043,1111122 
COMPS,ioos:station:USF.COMPS:ARP:1,2011-11-01T00:48:00Z,28.4330,-82.6670,-0.054,1111122 
COMPS,ioos:station:USF.COMPS:ARP:1,2011-11-01T00:54:00Z,28.4330,-82.6670,-0.067,1111122 
COMPS,ioos:station:USF.COMPS:ARP:1,2011-11-01T02:00:00Z,28.4330,-82.6670,-0.169,1111122 
COMPS,ioos:station:USF.COMPS:ARP:1,2011-11-01T02:06:00Z,28.4330,-82.6670,-0.177,1111122 
COMPS,ioos:station:USF.COMPS:ARP:1,2011-11-01T02:12:00Z,28.4330,-82.6670,-0.185,1111122 
COMPS,ioos:station:USF.COMPS:ARP:1,2011-11-01T02:18:00Z,28.4330,-82.6670,-0.194,1111122 
COMPS,ioos:station:USF.COMPS:ARP:1,2011-11-01T02:24:00Z,28.4330,-82.6670,-0.202,1111122 
COMPS,ioos:station:USF.COMPS:ARP:1,2011-11-01T02:30:00Z,28.4330,-82.6670,-0.209,1111122 
COMPS,ioos:station:USF.COMPS:ARP:1,2011-11-01T02:36:00Z,28.4330,-82.6670,-0.216,1111122 
COMPS,ioos:station:USF.COMPS:ARP:1,2011-11-01T02:42:00Z,28.4330,-82.6670,-0.223,1111122 
COMPS,ioos:station:USF.COMPS:ARP:1,2011-11-01T02:48:00Z,28.4330,-82.6670,-0.229,1111122 
COMPS,ioos:station:USF.COMPS:ARP:1,2011-11-01T02:54:00Z,28.4330,-82.6670,-0.234,1111122 
COMPS,ioos:station:USF.COMPS:ARP:1,2011-11-01T03:00:00Z,28.4330,-82.6670,-0.24,1111122 
COMPS,ioos:station:USF.COMPS:ARP:1,2011-11-01T03:06:00Z,28.4330,-82.6670,-0.245,1111122 
COMPS,ioos:station:USF.COMPS:ARP:1,2011-11-01T03:12:00Z,28.4330,-82.6670,-0.25,1111122 
COMPS,ioos:station:USF.COMPS:ARP:1,2011-11-01T03:18:00Z,28.4330,-82.6670,-0.255,1111122 
COMPS,ioos:station:USF.COMPS:ARP:1,2011-11-01T03:24:00Z,28.4330,-82.6670,-0.26,1111122 
COMPS,ioos:station:USF.COMPS:ARP:1,2011-11-01T03:30:00Z,28.4330,-82.6670,-0.265,1111122 
COMPS,ioos:station:USF.COMPS:ARP:1,2011-11-01T03:36:00Z,28.4330,-82.6670,-0.27,1111122 
COMPS,ioos:station:USF.COMPS:ARP:1,2011-11-01T03:42:00Z,28.4330,-82.6670,-0.274,1111122 
COMPS,ioos:station:USF.COMPS:ARP:1,2011-11-01T03:48:00Z,28.4330,-82.6670,-0.275,1111122 
COMPS,ioos:station:USF.COMPS:ARP:1,2011-11-01T03:54:00Z,28.4330,-82.6670,-0.279,1111122 
COMPS,ioos:station:USF.COMPS:ARP:1,2011-11-01T05:00:00Z,28.4330,-82.6670,-0.184,1111122 
COMPS,ioos:station:USF.COMPS:ARP:1,2011-11-01T05:06:00Z,28.4330,-82.6670,-0.172,1111122 
COMPS,ioos:station:USF.COMPS:ARP:1,2011-11-01T05:12:00Z,28.4330,-82.6670,-0.159,1111122 
COMPS,ioos:station:USF.COMPS:ARP:1,2011-11-01T05:18:00Z,28.4330,-82.6670,-0.147,1111122 
COMPS,ioos:station:USF.COMPS:ARP:1,2011-11-01T05:24:00Z,28.4330,-82.6670,-0.136,1111122 
COMPS,ioos:station:USF.COMPS:ARP:1,2011-11-01T05:30:00Z,28.4330,-82.6670,-0.124,1111122 
COMPS,ioos:station:USF.COMPS:ARP:1,2011-11-01T05:36:00Z,28.4330,-82.6670,-0.113,1111122 
COMPS,ioos:station:USF.COMPS:ARP:1,2011-11-01T05:42:00Z,28.4330,-82.6670,-0.102,1111122 
COMPS,ioos:station:USF.COMPS:ARP:1,2011-11-01T05:48:00Z,28.4330,-82.6670,-0.091,1111122 
COMPS,ioos:station:USF.COMPS:ARP:1,2011-11-01T05:54:00Z,28.4330,-82.6670,-0.077,1111122 
COMPS,ioos:station:USF.COMPS:ARP:1,2011-11-01T06:00:00Z,28.4330,-82.6670,-0.064,1111122 
COMPS,ioos:station:USF.COMPS:ARP:1,2011-11-01T06:06:00Z,28.4330,-82.6670,-0.051,1111122 
COMPS,ioos:station:USF.COMPS:ARP:1,2011-11-01T06:12:00Z,28.4330,-82.6670,-0.037,1111122 
COMPS,ioos:station:USF.COMPS:ARP:1,2011-11-01T06:18:00Z,28.4330,-82.6670,-0.024,1111122 
COMPS,ioos:station:USF.COMPS:ARP:1,2011-11-01T06:24:00Z,28.4330,-82.6670,-0.013,1111122 
COMPS,ioos:station:USF.COMPS:ARP:1,2011-11-01T06:30:00Z,28.4330,-82.6670,-0.001,1111122 
COMPS,ioos:station:USF.COMPS:ARP:1,2011-11-01T06:36:00Z,28.4330,-82.6670,0.008,1111122 
COMPS,ioos:station:USF.COMPS:ARP:1,2011-11-01T06:42:00Z,28.4330,-82.6670,0.018,1111122 
COMPS,ioos:station:USF.COMPS:ARP:1,2011-11-01T06:48:00Z,28.4330,-82.6670,0.026,1111122 
COMPS,ioos:station:USF.COMPS:ARP:1,2011-11-01T06:54:00Z,28.4330,-82.6670,0.033,1111122 
COMPS,ioos:station:USF.COMPS:ARP:1,2011-11-01T08:00:00Z,28.4330,-82.6670,0.071,1111122 
COMPS,ioos:station:USF.COMPS:ARP:1,2011-11-01T08:06:00Z,28.4330,-82.6670,0.068,1111122 
COMPS,ioos:station:USF.COMPS:ARP:1,2011-11-01T08:12:00Z,28.4330,-82.6670,0.064,1111122 
COMPS,ioos:station:USF.COMPS:ARP:1,2011-11-01T08:18:00Z,28.4330,-82.6670,0.059,1111122 
COMPS,ioos:station:USF.COMPS:ARP:1,2011-11-01T08:24:00Z,28.4330,-82.6670,0.057,1111122 
COMPS,ioos:station:USF.COMPS:ARP:1,2011-11-01T08:30:00Z,28.4330,-82.6670,0.052,1111122 
COMPS,ioos:station:USF.COMPS:ARP:1,2011-11-01T08:36:00Z,28.4330,-82.6670,0.048,1111122 
COMPS,ioos:station:USF.COMPS:ARP:1,2011-11-01T08:42:00Z,28.4330,-82.6670,0.038,1111122 
COMPS,ioos:station:USF.COMPS:ARP:1,2011-11-01T08:48:00Z,28.4330,-82.6670,0.029,1111122 
COMPS,ioos:station:USF.COMPS:ARP:1,2011-11-01T08:54:00Z,28.4330,-82.6670,0.016,1111122 
COMPS,ioos:station:USF.COMPS:ARP:1,2011-11-01T09:00:00Z,28.4330,-82.6670,0.004,1111122 
COMPS,ioos:station:USF.COMPS:ARP:1,2011-11-01T09:06:00Z,28.4330,-82.6670,-0.007,1111122 
COMPS,ioos:station:USF.COMPS:ARP:1,2011-11-01T09:12:00Z,28.4330,-82.6670,-0.017,1111122 
COMPS,ioos:station:USF.COMPS:ARP:1,2011-11-01T09:18:00Z,28.4330,-82.6670,-0.025,1111122 
COMPS,ioos:station:USF.COMPS:ARP:1,2011-11-01T09:24:00Z,28.4330,-82.6670,-0.031,1111122 
COMPS,ioos:station:USF.COMPS:ARP:1,2011-11-01T09:30:00Z,28.4330,-82.6670,-0.035,1111122 
COMPS,ioos:station:USF.COMPS:ARP:1,2011-11-01T09:36:00Z,28.4330,-82.6670,-0.038,1111122 
COMPS,ioos:station:USF.COMPS:ARP:1,2011-11-01T09:42:00Z,28.4330,-82.6670,-0.038,1111122 
COMPS,ioos:station:USF.COMPS:ARP:1,2011-11-01T09:48:00Z,28.4330,-82.6670,-0.039,1111122 
COMPS,ioos:station:USF.COMPS:ARP:1,2011-11-01T09:54:00Z,28.4330,-82.6670,-0.04,1111122 
COMPS,ioos:station:USF.COMPS:ARP:1,2011-11-01T11:00:00Z,28.4330,-82.6670,-0.114,1111122 
COMPS,ioos:station:USF.COMPS:ARP:1,2011-11-01T11:06:00Z,28.4330,-82.6670,-0.123,1111122 
COMPS,ioos:station:USF.COMPS:ARP:1,2011-11-01T11:12:00Z,28.4330,-82.6670,-0.131,1111122 
COMPS,ioos:station:USF.COMPS:ARP:1,2011-11-01T11:18:00Z,28.4330,-82.6670,-0.14,1111122 
COMPS,ioos:station:USF.COMPS:ARP:1,2011-11-01T11:24:00Z,28.4330,-82.6670,-0.15,1111122 
COMPS,ioos:station:USF.COMPS:ARP:1,2011-11-01T11:30:00Z,28.4330,-82.6670,-0.158,1111122 
COMPS,ioos:station:USF.COMPS:ARP:1,2011-11-01T11:36:00Z,28.4330,-82.6670,-0.168,1111122 
COMPS,ioos:station:USF.COMPS:ARP:1,2011-11-01T11:42:00Z,28.4330,-82.6670,-0.178,1111122 
COMPS,ioos:station:USF.COMPS:ARP:1,2011-11-01T11:48:00Z,28.4330,-82.6670,-0.187,1111122 
COMPS,ioos:station:USF.COMPS:ARP:1,2011-11-01T11:54:00Z,28.4330,-82.6670,-0.196,1111122 
COMPS,ioos:station:USF.COMPS:ARP:1,2011-11-01T12:00:00Z,28.4330,-82.6670,-0.206,1111122 
COMPS,ioos:station:USF.COMPS:ARP:1,2011-11-01T12:06:00Z,28.4330,-82.6670,-0.215,1111122 
COMPS,ioos:station:USF.COMPS:ARP:1,2011-11-01T12:12:00Z,28.4330,-82.6670,-0.225,1111122 
COMPS,ioos:station:USF.COMPS:ARP:1,2011-11-01T12:18:00Z,28.4330,-82.6670,-0.236,1111122 
COMPS,ioos:station:USF.COMPS:ARP:1,2011-11-01T12:24:00Z,28.4330,-82.6670,-0.246,1111122 
COMPS,ioos:station:USF.COMPS:ARP:1,2011-11-01T12:30:00Z,28.4330,-82.6670,-0.256,1111122 
COMPS,ioos:station:USF.COMPS:ARP:1,2011-11-01T12:36:00Z,28.4330,-82.6670,-0.267,1111122 
COMPS,ioos:station:USF.COMPS:ARP:1,2011-11-01T12:42:00Z,28.4330,-82.6670,-0.275,1111122 
COMPS,ioos:station:USF.COMPS:ARP:1,2011-11-01T12:48:00Z,28.4330,-82.6670,-0.282,1111122 
COMPS,ioos:station:USF.COMPS:ARP:1,2011-11-01T12:54:00Z,28.4330,-82.6670,-0.289,1111122 
COMPS,ioos:station:USF.COMPS:ARP:1,2011-11-01T14:00:00Z,28.4330,-82.6670,-0.388,1111122 
COMPS,ioos:station:USF.COMPS:ARP:1,2011-11-01T14:06:00Z,28.4330,-82.6670,-0.397,1111122 
COMPS,ioos:station:USF.COMPS:ARP:1,2011-11-01T14:12:00Z,28.4330,-82.6670,-0.405,1111122 
COMPS,ioos:station:USF.COMPS:ARP:1,2011-11-01T14:18:00Z,28.4330,-82.6670,-0.414,1111122 
COMPS,ioos:station:USF.COMPS:ARP:1,2011-11-01T14:24:00Z,28.4330,-82.6670,-0.425,1111122 
COMPS,ioos:station:USF.COMPS:ARP:1,2011-11-01T14:30:00Z,28.4330,-82.6670,-0.434,1111122 
COMPS,ioos:station:USF.COMPS:ARP:1,2011-11-01T14:36:00Z,28.4330,-82.6670,-0.442,1111122 
COMPS,ioos:station:USF.COMPS:ARP:1,2011-11-01T14:42:00Z,28.4330,-82.6670,-0.45,1111122 
COMPS,ioos:station:USF.COMPS:ARP:1,2011-11-01T14:48:00Z,28.4330,-82.6670,-0.459,1111122 
COMPS,ioos:station:USF.COMPS:ARP:1,2011-11-01T14:54:00Z,28.4330,-82.6670,-0.467,1111122 
COMPS,ioos:station:USF.COMPS:ARP:1,2011-11-01T15:00:00Z,28.4330,-82.6670,-0.474,1111122 
COMPS,ioos:station:USF.COMPS:ARP:1,2011-11-01T15:06:00Z,28.4330,-82.6670,-0.482,1111122 
COMPS,ioos:station:USF.COMPS:ARP:1,2011-11-01T15:12:00Z,28.4330,-82.6670,-0.487,1111122 
COMPS,ioos:station:USF.COMPS:ARP:1,2011-11-01T15:18:00Z,28.4330,-82.6670,-0.494,1111122 
COMPS,ioos:station:USF.COMPS:ARP:1,2011-11-01T15:24:00Z,28.4330,-82.6670,-0.5,1111122 
COMPS,ioos:station:USF.COMPS:ARP:1,2011-11-01T15:30:00Z,28.4330,-82.6670,-0.505,1111122 
COMPS,ioos:station:USF.COMPS:ARP:1,2011-11-01T15:36:00Z,28.4330,-82.6670,-0.51,1111122 
COMPS,ioos:station:USF.COMPS:ARP:1,2011-11-01T15:42:00Z,28.4330,-82.6670,-0.515,1111122 
COMPS,ioos:station:USF.COMPS:ARP:1,2011-11-01T15:48:00Z,28.4330,-82.6670,-0.521,1111122 
COMPS,ioos:station:USF.COMPS:ARP:1,2011-11-01T15:54:00Z,28.4330,-82.6670,-0.526,1111122 
COMPS,ioos:station:USF.COMPS:ARP:1,2011-11-01T16:00:00Z,28.4330,-82.6670,-0.53,1111122 
COMPS,ioos:station:USF.COMPS:ARP:1,2011-11-01T16:06:00Z,28.4330,-82.6670,-0.536,1111122 
COMPS,ioos:station:USF.COMPS:ARP:1,2011-11-01T16:12:00Z,28.4330,-82.6670,-0.54,1111122 
COMPS,ioos:station:USF.COMPS:ARP:1,2011-11-01T16:18:00Z,28.4330,-82.6670,-0.544,1111122 
COMPS,ioos:station:USF.COMPS:ARP:1,2011-11-01T16:24:00Z,28.4330,-82.6670,-0.548,1111122 
COMPS,ioos:station:USF.COMPS:ARP:1,2011-11-01T16:30:00Z,28.4330,-82.6670,-0.553,1111122 
COMPS,ioos:station:USF.COMPS:ARP:1,2011-11-01T16:36:00Z,28.4330,-82.6670,-0.558,1111122 
COMPS,ioos:station:USF.COMPS:ARP:1,2011-11-01T16:42:00Z,28.4330,-82.6670,-0.561,1111122 
COMPS,ioos:station:USF.COMPS:ARP:1,2011-11-01T16:48:00Z,28.4330,-82.6670,-0.565,1111122 
COMPS,ioos:station:USF.COMPS:ARP:1,2011-11-01T16:54:00Z,28.4330,-82.6670,-0.567,1111122 
COMPS,ioos:station:USF.COMPS:ARP:1,2011-11-01T17:00:00Z,28.4330,-82.6670,-0.57,1111122 
COMPS,ioos:station:USF.COMPS:ARP:1,2011-11-01T17:06:00Z,28.4330,-82.6670,-0.576,1111122 
COMPS,ioos:station:USF.COMPS:ARP:1,2011-11-01T17:12:00Z,28.4330,-82.6670,-0.582,1111122 
COMPS,ioos:station:USF.COMPS:ARP:1,2011-11-01T17:18:00Z,28.4330,-82.6670,-0.586,1111122 
COMPS,ioos:station:USF.COMPS:ARP:1,2011-11-01T17:24:00Z,28.4330,-82.6670,-0.581,1111122 
COMPS,ioos:station:USF.COMPS:ARP:1,2011-11-01T17:30:00Z,28.4330,-82.6670,-0.581,1111122 
COMPS,ioos:station:USF.COMPS:ARP:1,2011-11-01T17:36:00Z,28.4330,-82.6670,-0.581,1111122 
COMPS,ioos:station:USF.COMPS:ARP:1,2011-11-01T17:42:00Z,28.4330,-82.6670,-0.582,1111122 
COMPS,ioos:station:USF.COMPS:ARP:1,2011-11-01T17:48:00Z,28.4330,-82.6670,-0.586,1111122 
COMPS,ioos:station:USF.COMPS:ARP:1,2011-11-01T17:54:00Z,28.4330,-82.6670,-0.6,1111122 
COMPS,ioos:station:USF.COMPS:ARP:1,2011-11-01T18:00:00Z,28.4330,-82.6670,-0.646,1111122 
COMPS,ioos:station:USF.COMPS:ARP:1,2011-11-01T18:06:00Z,28.4330,-82.6670,-0.597,1111122 
COMPS,ioos:station:USF.COMPS:ARP:1,2011-11-01T18:12:00Z,28.4330,-82.6670,-0.58,1111122 
COMPS,ioos:station:USF.COMPS:ARP:1,2011-11-01T18:18:00Z,28.4330,-82.6670,-0.58,1111122 
COMPS,ioos:station:USF.COMPS:ARP:1,2011-11-01T18:24:00Z,28.4330,-82.6670,-0.579,1111122 
COMPS,ioos:station:USF.COMPS:ARP:1,2011-11-01T18:30:00Z,28.4330,-82.6670,-0.578,1111122 
COMPS,ioos:station:USF.COMPS:ARP:1,2011-11-01T18:36:00Z,28.4330,-82.6670,-0.58,1111122 
COMPS,ioos:station:USF.COMPS:ARP:1,2011-11-01T18:42:00Z,28.4330,-82.6670,-0.579,1111122 
COMPS,ioos:station:USF.COMPS:ARP:1,2011-11-01T18:48:00Z,28.4330,-82.6670,-0.579,1111122 
COMPS,ioos:station:USF.COMPS:ARP:1,2011-11-01T18:54:00Z,28.4330,-82.6670,-0.578,1111122 
COMPS,ioos:station:USF.COMPS:ARP:1,2011-11-01T20:00:00Z,28.4330,-82.6670,-0.573,1111122 
COMPS,ioos:station:USF.COMPS:ARP:1,2011-11-01T20:06:00Z,28.4330,-82.6670,-0.573,1111122 
COMPS,ioos:station:USF.COMPS:ARP:1,2011-11-01T20:12:00Z,28.4330,-82.6670,-0.573,1111122 
COMPS,ioos:station:USF.COMPS:ARP:1,2011-11-01T20:18:00Z,28.4330,-82.6670,-0.573,1111122 
COMPS,ioos:station:USF.COMPS:ARP:1,2011-11-01T20:24:00Z,28.4330,-82.6670,-0.574,1111122 
COMPS,ioos:station:USF.COMPS:ARP:1,2011-11-01T20:30:00Z,28.4330,-82.6670,-0.637,1111122 
COMPS,ioos:station:USF.COMPS:ARP:1,2011-11-01T20:36:00Z,28.4330,-82.6670,-0.575,1111122 
COMPS,ioos:station:USF.COMPS:ARP:1,2011-11-01T20:42:00Z,28.4330,-82.6670,-0.577,1111122 
COMPS,ioos:station:USF.COMPS:ARP:1,2011-11-01T20:48:00Z,28.4330,-82.6670,-0.568,1111122 
COMPS,ioos:station:USF.COMPS:ARP:1,2011-11-01T20:54:00Z,28.4330,-82.6670,-0.555,1111122 
COMPS,ioos:station:USF.COMPS:ARP:1,2011-11-01T21:00:00Z,28.4330,-82.6670,-0.54,1111122 
COMPS,ioos:station:USF.COMPS:ARP:1,2011-11-01T21:06:00Z,28.4330,-82.6670,-0.522,1111122 
COMPS,ioos:station:USF.COMPS:ARP:1,2011-11-01T21:12:00Z,28.4330,-82.6670,-0.504,1111122 
COMPS,ioos:station:USF.COMPS:ARP:1,2011-11-01T21:18:00Z,28.4330,-82.6670,-0.484,1111122 
COMPS,ioos:station:USF.COMPS:ARP:1,2011-11-01T21:24:00Z,28.4330,-82.6670,-0.462,1111122 
COMPS,ioos:station:USF.COMPS:ARP:1,2011-11-01T21:30:00Z,28.4330,-82.6670,-0.443,1111122 
COMPS,ioos:station:USF.COMPS:ARP:1,2011-11-01T21:36:00Z,28.4330,-82.6670,-0.425,1111122 
COMPS,ioos:station:USF.COMPS:ARP:1,2011-11-01T21:42:00Z,28.4330,-82.6670,-0.403,1111122 
COMPS,ioos:station:USF.COMPS:ARP:1,2011-11-01T21:48:00Z,28.4330,-82.6670,-0.377,1111122 
COMPS,ioos:station:USF.COMPS:ARP:1,2011-11-01T21:54:00Z,28.4330,-82.6670,-0.352,1111122 
COMPS,ioos:station:USF.COMPS:ARP:1,2011-11-01T23:00:00Z,28.4330,-82.6670,-0.132,1111122 
COMPS,ioos:station:USF.COMPS:ARP:1,2011-11-01T23:06:00Z,28.4330,-82.6670,-0.124,1111122 
COMPS,ioos:station:USF.COMPS:ARP:1,2011-11-01T23:12:00Z,28.4330,-82.6670,-0.119,1111122 
COMPS,ioos:station:USF.COMPS:ARP:1,2011-11-01T23:18:00Z,28.4330,-82.6670,-0.118,1111122 
COMPS,ioos:station:USF.COMPS:ARP:1,2011-11-01T23:24:00Z,28.4330,-82.6670,-0.121,1111122 
COMPS,ioos:station:USF.COMPS:ARP:1,2011-11-01T23:30:00Z,28.4330,-82.6670,-0.124,1111122 
COMPS,ioos:station:USF.COMPS:ARP:1,2011-11-01T23:36:00Z,28.4330,-82.6670,-0.125,1111122 
COMPS,ioos:station:USF.COMPS:ARP:1,2011-11-01T23:42:00Z,28.4330,-82.6670,-0.124,1111122 
COMPS,ioos:station:USF.COMPS:ARP:1,2011-11-01T23:48:00Z,28.4330,-82.6670,-0.125,1111122 
COMPS,ioos:station:USF.COMPS:ARP:1,2011-11-01T23:54:00Z,28.4330,-82.6670,-0.122,1111122 
COMPS,ioos:station:USF.COMPS:ARP:1,2011-11-02T02:00:00Z,28.4330,-82.6670,-0.273,1111122 
COMPS,ioos:station:USF.COMPS:ARP:1,2011-11-02T02:06:00Z,28.4330,-82.6670,-0.282,1111122 
COMPS,ioos:station:USF.COMPS:ARP:1,2011-11-02T02:12:00Z,28.4330,-82.6670,-0.291,1111122 
COMPS,ioos:station:USF.COMPS:ARP:1,2011-11-02T02:18:00Z,28.4330,-82.6670,-0.3,1111122 
COMPS,ioos:station:USF.COMPS:ARP:1,2011-11-02T02:24:00Z,28.4330,-82.6670,-0.308,1111122 
COMPS,ioos:station:USF.COMPS:ARP:1,2011-11-02T02:30:00Z,28.4330,-82.6670,-0.317,1111122 
COMPS,ioos:station:USF.COMPS:ARP:1,2011-11-02T02:36:00Z,28.4330,-82.6670,-0.326,1111122 
COMPS,ioos:station:USF.COMPS:ARP:1,2011-11-02T02:42:00Z,28.4330,-82.6670,-0.334,1111122 
COMPS,ioos:station:USF.COMPS:ARP:1,2011-11-02T02:48:00Z,28.4330,-82.6670,-0.342,1111122 
COMPS,ioos:station:USF.COMPS:ARP:1,2011-11-02T02:54:00Z,28.4330,-82.6670,-0.35,1111122 
COMPS,ioos:station:USF.COMPS:ARP:1,2011-11-02T03:00:00Z,28.4330,-82.6670,-0.357,1111122 
COMPS,ioos:station:USF.COMPS:ARP:1,2011-11-02T03:06:00Z,28.4330,-82.6670,-0.365,1111122 
COMPS,ioos:station:USF.COMPS:ARP:1,2011-11-02T03:12:00Z,28.4330,-82.6670,-0.372,1111122 
COMPS,ioos:station:USF.COMPS:ARP:1,2011-11-02T03:18:00Z,28.4330,-82.6670,-0.379,1111122 
COMPS,ioos:station:USF.COMPS:ARP:1,2011-11-02T03:24:00Z,28.4330,-82.6670,-0.386,1111122 
COMPS,ioos:station:USF.COMPS:ARP:1,2011-11-02T03:30:00Z,28.4330,-82.6670,-0.394,1111122 
COMPS,ioos:station:USF.COMPS:ARP:1,2011-11-02T03:36:00Z,28.4330,-82.6670,-0.4,1111122 
COMPS,ioos:station:USF.COMPS:ARP:1,2011-11-02T03:42:00Z,28.4330,-82.6670,-0.407,1111122 
COMPS,ioos:station:USF.COMPS:ARP:1,2011-11-02T03:48:00Z,28.4330,-82.6670,-0.413,1111122 
COMPS,ioos:station:USF.COMPS:ARP:1,2011-11-02T03:54:00Z,28.4330,-82.6670,-0.419,1111122 
COMPS,ioos:station:USF.COMPS:ARP:1,2011-11-02T06:00:00Z,28.4330,-82.6670,-0.482,1111122 
COMPS,ioos:station:USF.COMPS:ARP:1,2011-11-02T06:06:00Z,28.4330,-82.6670,-0.478,1111122 
COMPS,ioos:station:USF.COMPS:ARP:1,2011-11-02T06:12:00Z,28.4330,-82.6670,-0.472,1111122 
COMPS,ioos:station:USF.COMPS:ARP:1,2011-11-02T06:18:00Z,28.4330,-82.6670,-0.467,1111122 
COMPS,ioos:station:USF.COMPS:ARP:1,2011-11-02T06:24:00Z,28.4330,-82.6670,-0.459,1111122 
COMPS,ioos:station:USF.COMPS:ARP:1,2011-11-02T06:30:00Z,28.4330,-82.6670,-0.451,1111122 
COMPS,ioos:station:USF.COMPS:ARP:1,2011-11-02T06:36:00Z,28.4330,-82.6670,-0.442,1111122 
COMPS,ioos:station:USF.COMPS:ARP:1,2011-11-02T06:42:00Z,28.4330,-82.6670,-0.432,1111122 
COMPS,ioos:station:USF.COMPS:ARP:1,2011-11-02T06:48:00Z,28.4330,-82.6670,-0.421,1111122 
COMPS,ioos:station:USF.COMPS:ARP:1,2011-11-02T06:54:00Z,28.4330,-82.6670,-0.409,1111122 
COMPS,ioos:station:USF.COMPS:ARP:1,2011-11-02T08:00:00Z,28.4330,-82.6670,-0.229,1111122 
COMPS,ioos:station:USF.COMPS:ARP:1,2011-11-02T08:06:00Z,28.4330,-82.6670,-0.21,1111122 
COMPS,ioos:station:USF.COMPS:ARP:1,2011-11-02T08:12:00Z,28.4330,-82.6670,-0.191,1111122 
COMPS,ioos:station:USF.COMPS:ARP:1,2011-11-02T08:18:00Z,28.4330,-82.6670,-0.17,1111122 
COMPS,ioos:station:USF.COMPS:ARP:1,2011-11-02T08:24:00Z,28.4330,-82.6670,-0.152,1111122 
COMPS,ioos:station:USF.COMPS:ARP:1,2011-11-02T08:30:00Z,28.4330,-82.6670,-0.134,1111122 
COMPS,ioos:station:USF.COMPS:ARP:1,2011-11-02T08:36:00Z,28.4330,-82.6670,-0.116,1111122 
COMPS,ioos:station:USF.COMPS:ARP:1,2011-11-02T08:42:00Z,28.4330,-82.6670,-0.098,1111122 
COMPS,ioos:station:USF.COMPS:ARP:1,2011-11-02T08:48:00Z,28.4330,-82.6670,-0.082,1111122 
COMPS,ioos:station:USF.COMPS:ARP:1,2011-11-02T08:54:00Z,28.4330,-82.6670,-0.066,1111122 
COMPS,ioos:station:USF.COMPS:ARP:1,2011-11-02T09:00:00Z,28.4330,-82.6670,-0.051,1111122 
COMPS,ioos:station:USF.COMPS:ARP:1,2011-11-02T09:06:00Z,28.4330,-82.6670,-0.036,1111122 
COMPS,ioos:station:USF.COMPS:ARP:1,2011-11-02T09:12:00Z,28.4330,-82.6670,-0.022,1111122 
COMPS,ioos:station:USF.COMPS:ARP:1,2011-11-02T09:18:00Z,28.4330,-82.6670,-0.009,1111122 
COMPS,ioos:station:USF.COMPS:ARP:1,2011-11-02T09:24:00Z,28.4330,-82.6670,0.002,1111122 
COMPS,ioos:station:USF.COMPS:ARP:1,2011-11-02T09:30:00Z,28.4330,-82.6670,0.014,1111122 
COMPS,ioos:station:USF.COMPS:ARP:1,2011-11-02T09:36:00Z,28.4330,-82.6670,0.023,1111122 
COMPS,ioos:station:USF.COMPS:ARP:1,2011-11-02T09:42:00Z,28.4330,-82.6670,0.034,1111122 
COMPS,ioos:station:USF.COMPS:ARP:1,2011-11-02T09:48:00Z,28.4330,-82.6670,0.042,1111122 
COMPS,ioos:station:USF.COMPS:ARP:1,2011-11-02T09:54:00Z,28.4330,-82.6670,0.05,1111122 
COMPS,ioos:station:USF.COMPS:ARP:1,2011-11-02T11:00:00Z,28.4330,-82.6670,0.063,1111122 
COMPS,ioos:station:USF.COMPS:ARP:1,2011-11-02T11:06:00Z,28.4330,-82.6670,0.059,1111122 
COMPS,ioos:station:USF.COMPS:ARP:1,2011-11-02T11:12:00Z,28.4330,-82.6670,0.052,1111122 
COMPS,ioos:station:USF.COMPS:ARP:1,2011-11-02T11:18:00Z,28.4330,-82.6670,0.049,1111122 
COMPS,ioos:station:USF.COMPS:ARP:1,2011-11-02T11:24:00Z,28.4330,-82.6670,0.049,1111122 
COMPS,ioos:station:USF.COMPS:ARP:1,2011-11-02T11:30:00Z,28.4330,-82.6670,0.048,1111122 
COMPS,ioos:station:USF.COMPS:ARP:1,2011-11-02T11:36:00Z,28.4330,-82.6670,0.048,1111122 
COMPS,ioos:station:USF.COMPS:ARP:1,2011-11-02T11:42:00Z,28.4330,-82.6670,0.05,1111122 
COMPS,ioos:station:USF.COMPS:ARP:1,2011-11-02T11:48:00Z,28.4330,-82.6670,0.051,1111122 
COMPS,ioos:station:USF.COMPS:ARP:1,2011-11-02T11:54:00Z,28.4330,-82.6670,0.048,1111122 
COMPS,ioos:station:USF.COMPS:ARP:1,2011-11-02T12:00:00Z,28.4330,-82.6670,0.043,1111122 
COMPS,ioos:station:USF.COMPS:ARP:1,2011-11-02T12:06:00Z,28.4330,-82.6670,0.032,1111122 
COMPS,ioos:station:USF.COMPS:ARP:1,2011-11-02T12:12:00Z,28.4330,-82.6670,0.026,1111122 
COMPS,ioos:station:USF.COMPS:ARP:1,2011-11-02T12:18:00Z,28.4330,-82.6670,0.013,1111122 
COMPS,ioos:station:USF.COMPS:ARP:1,2011-11-02T12:24:00Z,28.4330,-82.6670,0.0,1114422 
COMPS,ioos:station:USF.COMPS:ARP:1,2011-11-02T12:30:00Z,28.4330,-82.6670,-0.011,1111122 
COMPS,ioos:station:USF.COMPS:ARP:1,2011-11-02T12:36:00Z,28.4330,-82.6670,-0.022,1111122 
COMPS,ioos:station:USF.COMPS:ARP:1,2011-11-02T12:42:00Z,28.4330,-82.6670,-0.029,1111122 
COMPS,ioos:station:USF.COMPS:ARP:1,2011-11-02T12:48:00Z,28.4330,-82.6670,-0.035,1111122 
COMPS,ioos:station:USF.COMPS:ARP:1,2011-11-02T12:54:00Z,28.4330,-82.6670,-0.042,1111122 
COMPS,ioos:station:USF.COMPS:ARP:1,2011-11-02T14:00:00Z,28.4330,-82.6670,-0.155,1111122 
COMPS,ioos:station:USF.COMPS:ARP:1,2011-11-02T14:06:00Z,28.4330,-82.6670,-0.165,1111122 
COMPS,ioos:station:USF.COMPS:ARP:1,2011-11-02T14:12:00Z,28.4330,-82.6670,-0.175,1111122 
COMPS,ioos:station:USF.COMPS:ARP:1,2011-11-02T14:18:00Z,28.4330,-82.6670,-0.186,1111122 
COMPS,ioos:station:USF.COMPS:ARP:1,2011-11-02T14:24:00Z,28.4330,-82.6670,-0.196,1111122 
COMPS,ioos:station:USF.COMPS:ARP:1,2011-11-02T14:30:00Z,28.4330,-82.6670,-0.205,1111122 
COMPS,ioos:station:USF.COMPS:ARP:1,2011-11-02T14:36:00Z,28.4330,-82.6670,-0.216,1111122 
COMPS,ioos:station:USF.COMPS:ARP:1,2011-11-02T14:42:00Z,28.4330,-82.6670,-0.226,1111122 
COMPS,ioos:station:USF.COMPS:ARP:1,2011-11-02T14:48:00Z,28.4330,-82.6670,-0.236,1111122 
COMPS,ioos:station:USF.COMPS:ARP:1,2011-11-02T14:54:00Z,28.4330,-82.6670,-0.247,1111122 
COMPS,ioos:station:USF.COMPS:ARP:1,2011-11-02T15:00:00Z,28.4330,-82.6670,-0.257,1111122 
COMPS,ioos:station:USF.COMPS:ARP:1,2011-11-02T15:06:00Z,28.4330,-82.6670,-0.267,1111122 
COMPS,ioos:station:USF.COMPS:ARP:1,2011-11-02T15:12:00Z,28.4330,-82.6670,-0.277,1111122 
COMPS,ioos:station:USF.COMPS:ARP:1,2011-11-02T15:18:00Z,28.4330,-82.6670,-0.286,1111122 
COMPS,ioos:station:USF.COMPS:ARP:1,2011-11-02T15:24:00Z,28.4330,-82.6670,-0.297,1111122 
COMPS,ioos:station:USF.COMPS:ARP:1,2011-11-02T15:30:00Z,28.4330,-82.6670,-0.307,1111122 
COMPS,ioos:station:USF.COMPS:ARP:1,2011-11-02T15:36:00Z,28.4330,-82.6670,-0.316,1111122 
COMPS,ioos:station:USF.COMPS:ARP:1,2011-11-02T15:42:00Z,28.4330,-82.6670,-0.326,1111122 
COMPS,ioos:station:USF.COMPS:ARP:1,2011-11-02T15:48:00Z,28.4330,-82.6670,-0.334,1111122 
COMPS,ioos:station:USF.COMPS:ARP:1,2011-11-02T15:54:00Z,28.4330,-82.6670,-0.344,1111122 
COMPS,ioos:station:USF.COMPS:ARP:1,2011-11-02T17:00:00Z,28.4330,-82.6670,-0.44,1111122 
COMPS,ioos:station:USF.COMPS:ARP:1,2011-11-02T17:06:00Z,28.4330,-82.6670,-0.451,1111122 
COMPS,ioos:station:USF.COMPS:ARP:1,2011-11-02T17:12:00Z,28.4330,-82.6670,-0.46,1111122 
COMPS,ioos:station:USF.COMPS:ARP:1,2011-11-02T17:18:00Z,28.4330,-82.6670,-0.47,1111122 
COMPS,ioos:station:USF.COMPS:ARP:1,2011-11-02T17:24:00Z,28.4330,-82.6670,-0.476,1111122 
COMPS,ioos:station:USF.COMPS:ARP:1,2011-11-02T17:30:00Z,28.4330,-82.6670,-0.483,1111122 
COMPS,ioos:station:USF.COMPS:ARP:1,2011-11-02T17:36:00Z,28.4330,-82.6670,-0.49,1111122 
COMPS,ioos:station:USF.COMPS:ARP:1,2011-11-02T17:42:00Z,28.4330,-82.6670,-0.496,1111122 
COMPS,ioos:station:USF.COMPS:ARP:1,2011-11-02T17:48:00Z,28.4330,-82.6670,-0.5,1111122 